EW6230 Weather Reports


time (UTC)temp
C
wind
direction
speed
KPH
gust
KPH
rain 1hr
cm
rain 24hr
cm
rain mn
cm
humidity
%
barometer
mb
20260901014539 18 122 0.0 0.0 0.00 0.00 0.00 61 1005.9
20260901013050 19 122 0.0 0.0 0.00 0.00 0.00 61 1005.9
20260901011536 18 122 0.0 0.0 0.00 0.00 0.00 61 1005.9
20260901010024 18 122 0.0 0.0 0.00 0.00 0.00 61 1006.0
20260901004520 19 125 0.0 0.0 0.00 0.00 0.00 61 1006.1
20260901003015 19 124 0.0 0.0 0.00 0.00 0.00 62 1006.2
20260901001515 19 124 0.0 0.0 0.00 0.00 0.00 62 1006.4
20260901000006 19 124 0.0 0.0 0.00 0.00 0.00 62 1006.5
20260831234502 19 124 0.0 0.0 0.00 0.00 0.00 61 1006.5
20260831233056 20 125 0.0 0.0 0.00 0.00 0.00 61 1006.7
20260831231552 20 124 0.0 0.0 0.00 0.00 0.00 59 1006.8
20260831230048 21 125 0.0 0.0 0.00 0.00 0.00 58 1007.0
20260831224543 21 124 0.0 1.6 0.00 0.00 0.00 58 1007.2
20260831223042 21 15 0.0 1.6 0.00 0.00 0.00 55 1007.5
20260831221534 21 334 0.0 1.6 0.00 0.00 0.00 58 1007.5
20260831220031 21 1 0.0 1.6 0.00 0.00 0.00 59 1007.7
20260831214526 21 5 0.0 1.6 0.00 0.00 0.00 58 1007.9
20260831213024 21 75 0.0 1.6 0.00 0.00 0.00 59 1008.1
20260831211517 21 314 0.0 1.6 0.00 0.00 0.00 60 1008.3
20260831210012 21 288 0.0 1.6 0.00 0.00 0.00 58 1008.5
20260831204508 21 23 0.0 1.6 0.00 0.00 0.00 61 1008.5
20260831203004 20 314 0.0 1.6 0.00 0.00 0.00 61 1008.6
20260831201607 19 326 0.0 3.2 0.00 0.00 0.00 62 1008.8
20260831200137 20 72 0.0 1.6 0.00 0.00 0.00 61 1008.9
20260831194557 20 315 0.0 0.0 0.00 0.00 0.00 62 1009.2
20260831193045 19 56 0.0 1.6 0.00 0.00 0.00 62 1009.3
20260831191545 18 13 0.0 1.6 0.00 0.00 0.00 62 1009.5
20260831190040 18 333 0.0 1.6 0.00 0.00 0.00 62 1009.8
20260831184532 18 331 0.0 1.6 0.00 0.00 0.00 62 1009.9
20260831183028 18 332 0.0 1.6 0.00 0.00 0.00 62 1010.0
20260831181528 18 326 0.0 1.6 0.00 0.00 0.00 62 1010.1
20260831180019 17 67 0.0 1.6 0.00 0.00 0.00 57 1010.2
20260831174515 17 72 0.0 1.6 0.00 0.00 0.00 56 1010.3
20260831173010 17 70 0.0 1.6 0.00 0.00 0.00 44 1010.5
20260831171505 16 71 0.0 1.6 0.00 0.00 0.00 34 1010.5
20260831170001 16 75 0.0 1.6 0.00 0.00 0.00 36 1010.7
20260831164557 16 235 0.0 0.0 0.00 0.00 0.00 28 1010.7
20260831163051 16 234 0.0 1.6 0.00 0.00 0.00 36 1010.8
20260831161547 16 234 0.0 0.0 0.00 0.00 0.00 21 1010.9
20260831160043 16 234 0.0 0.0 0.00 0.00 0.00 2 1010.9
20260831154538 15 234 0.0 0.0 0.00 0.00 0.00 1 1011.0
20260831153034 13 237 0.0 0.0 0.00 0.00 0.00 1 1011.0
20260831151529 12 238 0.0 0.0 0.00 0.00 0.00 1 1011.1
20260831150025 12 238 0.0 0.0 0.00 0.00 0.00 1 1011.0
20260831144521 12 237 0.0 0.0 0.00 0.00 0.00 1 1011.1
20260831143018 11 237 0.0 0.0 0.00 0.00 0.00 1 1011.1
20260831141512 -17 0.0 0.0 0.00 0.00 0.00 1011.1
20260831140021 -17 0.0 0.0 0.00 0.00 0.00 1011.1
20260831134504 -17 0.0 0.0 0.00 0.00 0.00 1011.0
20260831133059 -17 0.0 0.0 0.00 0.00 0.00 1011.1
20260831131559 -17 0.0 0.0 0.00 0.00 0.00 1011.2
20260831130053 -17 0.0 0.0 0.00 0.00 0.00 1011.4
20260831124548 -17 0.0 0.0 0.00 0.00 0.00 1011.5
20260831123042 -17 0.0 0.0 0.00 0.00 0.00 1011.5
20260831121538 11 238 0.0 0.0 0.00 0.00 0.00 1 1011.6
20260831120034 11 238 0.0 0.0 0.00 0.00 0.00 1 1011.8
20260831114532 11 237 0.0 0.0 0.00 0.00 0.00 1 1011.9
20260831113024 11 237 0.0 0.0 0.00 0.00 0.00 1 1011.9
20260831111521 11 237 0.0 0.0 0.00 0.00 0.00 1 1012.1
20260831110015 11 238 0.0 0.0 0.00 0.00 0.00 1 1012.2
20260831104512 11 237 0.0 0.0 0.00 0.00 0.00 1 1012.3
20260831103005 11 238 0.0 0.0 0.00 0.00 0.00 1 1012.3
20260831101503 11 238 0.0 0.0 0.00 0.00 0.00 1 1012.3
20260831100104 11 237 0.0 0.0 0.00 0.00 0.00 1 1012.5
20260831094553 11 238 0.0 0.0 0.00 0.00 0.00 1 1012.7
20260831093053 11 237 0.0 0.0 0.00 0.00 0.00 1 1012.7
20260831091543 11 237 0.0 0.0 0.00 0.00 0.00 1 1012.8
20260831090044 11 237 0.0 0.0 0.00 0.00 0.00 1 1012.9
20260831084536 11 237 0.0 0.0 0.00 0.00 0.00 1 1013.2
20260831083031 11 238 0.0 0.0 0.00 0.00 0.00 1 1013.3
20260831081525 11 237 0.0 0.0 0.00 0.00 0.00 1 1013.4
20260831080021 11 237 0.0 0.0 0.00 0.00 0.00 1 1013.6
20260831074521 12 238 0.0 0.0 0.00 0.00 0.00 1 1013.6
20260831073012 12 237 0.0 0.0 0.00 0.00 0.00 1 1013.7
20260831071508 12 237 0.0 0.0 0.00 0.00 0.00 1 1013.8
20260831070005 12 237 0.0 0.0 0.00 0.00 0.00 1 1014.1
20260831064600 12 237 0.0 0.0 0.00 0.00 0.00 1 1014.2
20260831063054 12 237 0.0 0.0 0.00 0.00 0.00 1 1014.4
20260831061554 12 238 0.0 0.0 0.00 0.00 0.00 1 1014.3
20260831060050 12 237 0.0 0.0 0.00 0.00 0.00 1 1014.3
20260831054545 13 238 0.0 0.0 0.00 0.00 0.00 1 1014.3
20260831053039 13 238 0.0 0.0 0.00 0.00 0.00 1 1014.4
20260831051537 13 237 0.0 0.0 0.00 0.00 0.00 1 1014.4
20260831050027 13 237 0.0 0.0 0.00 0.00 0.00 1 1014.6
20260831044523 13 237 0.0 0.0 0.00 0.00 0.00 1 1014.8
20260831043018 14 238 0.0 0.0 0.00 0.00 0.00 1 1014.8
20260831041514 14 238 0.0 0.0 0.00 0.00 0.00 1 1014.9
20260831040010 15 237 0.0 0.0 0.00 0.00 0.00 1 1014.9
20260831034505 15 237 0.0 0.0 0.00 0.00 0.00 1 1014.8
20260831033002 15 237 0.0 0.0 0.00 0.00 0.00 2 1014.8
20260831031557 15 238 0.0 0.0 0.00 0.00 0.00 6 1014.8
20260831030053 15 238 0.0 0.0 0.00 0.00 0.00 8 1014.9
20260831024549 15 237 0.0 0.0 0.00 0.00 0.00 11 1014.9
20260831023045 15 238 0.0 0.0 0.00 0.00 0.00 17 1014.9
20260831021539 16 237 0.0 0.0 0.00 0.00 0.00 20 1014.9
20260831020038 16 238 0.0 0.0 0.00 0.00 0.00 24 1015.0